Tracking 25734 objects as of 27-May-2022
HD Live streaming from Space Station
objects crossing your sky now

SL-16 DEB

Track SL-16 DEB now!
10-day predictions


NORAD ID: 42250
Int'l Code: 1993-016DE
Perigee: 803.8 km
Apogee: 816.3 km
Inclination: 71.0 °
Period: 100.9 minutes
Semi major axis: 7181 km
RCS: Unknown
Launch date: March 26, 1993
Source: Commonwealth of Independent States (former USSR) (CIS)
Launch site: PLESETSK MISSILE AND SPACE COMPLEX (PKMTR)

Note: This is SATELLITE DEBRIS
aabbcc
Your satellite tracking list
Your tracking list is empty




NASA's NSSDC Master Catalog

Two Line Element Set (TLE):
1 42250U 93016DE  22147.05538378  .00007855  00000-0  32629-2 0  9996
2 42250  70.9948 272.0157 0008709 156.2386 203.9146 14.26674977339374
Source of the keplerian elements: AFSPC